Miscellaneous Local Product
Issued by NWS Hastings, NE

Home | Current Version | Previous Version | Graphics & Text | Print | Product List | Glossary On
Versions: 1 2 3 4 5 6 7 8 9 10 11 12 13 14 15 16 17 18 19 20 21 22 23 24 25 26 27 28 29 30 31 32 33 34 35 36 37 38 39 40 41 42 43 44 45 46 47 48 49 50
311
AXUS43 KGID 301902
MISGRI

GID CWA HOURLY WEATHER ROUNDUP
NATIONAL WEATHER SERVICE HASTINGS NE
100 PM CST WED NOV 30 2016

NOTE: "FAIR" INDICATES FEW OR NO CLOUDS BELOW 12,000 FEET WITH NO
SIGNIFICANT WEATHER AND/OR OBSTRUCTIONS TO VISIBILITY.

...SOUTH CENTRAL NEBRASKA...

CITY           SKY/WX    TMP DP  RH WIND       PRES   REMARKS
GRAND ISLAND   CLOUDY    33  22  63 NW23G32   29.80S WCI  21
HASTINGS       PTSUNNY   36  21  54 NW25G35   29.82S WCI  24
KEARNEY        CLOUDY    36  18  48 NW22G30   29.82S WCI  24
ORD            FLURRIES  32  20  61 NW25G32   29.79R WCI  19
YORK           LGT RAIN  34  23  64 NW25G35   29.77S WCI  21
AURORA         CLOUDY    33  23  66 NW23G29   29.79S WCI  20
LEXINGTON      CLOUDY    34  24  67 NW22      29.85S WCI  22
HOLDREGE       PTSUNNY   35  21  55 NW23G32   29.84S WCI  24
HEBRON         CLOUDY    37  21  53 NW22G30   29.81F WCI  25

...NEBRASKA PANHANDLE...

CITY           SKY/WX    TMP DP  RH WIND       PRES   REMARKS
CHADRON        CLOUDY    38  13  35 NW31G41   29.86F WCI  25
ALLIANCE       CLOUDY    37  12  35 NW29G35   29.83F WCI  25
SCOTTSBLUFF    SUNNY     39  11  31 W21G31    29.89F WCI  29
SIDNEY         SUNNY     38  11  32 NW29G41   29.87F WCI  26

...WESTERN AND NORTH CENTRAL NEBRASKA...

CITY           SKY/WX    TMP DP  RH WIND       PRES   REMARKS
VALENTINE      CLOUDY    27  19  72 NW22G31   29.82S WCI  13
AINSWORTH      CLOUDY    28  22  78 NW24G33   29.80S WCI  13
ONEILL         FLURRIES  30  24  80 NW23G33   29.76S WCI  16
BROKEN BOW     CLOUDY    30  23  75 NW25      29.82R WCI  16
IMPERIAL       SUNNY     42  10  27 NW32G41   29.86F
NORTH PLATTE   CLOUDY    35  21  56 NW18      29.85F WCI  24
MCCOOK         MOSUNNY   44  16  32 NW25G37   29.86F

...EASTERN NEBRASKA...

CITY           SKY/WX    TMP DP  RH WIND       PRES   REMARKS
NORFOLK        FLURRIES  31  24  75 NW21G30   29.72R WCI  18
SO SIOUX CITY  CLOUDY    36  29  75 NW18G26   29.67S WCI  26
TEKAMAH        CLOUDY    35  27  72 W20G29    29.70F WCI  24
COLUMBUS       CLOUDY    34  23  64 W23       29.75S WCI  22
ALBION         CLOUDY    32  23  69 NW23G33   29.75S WCI  19
OMAHA EPPLEY   FLURRIES  37  25  61 W21G29    29.71S WCI  26
OFFUTT AFB     CLOUDY    37  26  64 W18G26    29.71S WCI  27
MILLARD        CLOUDY    37  26  64 W15G23    29.73R WCI  28
LINCOLN        CLOUDY    36  23  59 NW21      29.78R WCI  25
NEBRASKA CITY  CLOUDY    36  21  55 W20G25    29.75R WCI  25
BEATRICE       CLOUDY    36  24  63 NW18G29   29.79R WCI  26
FALLS CITY     CLOUDY    37  25  61 W18G24    29.77S WCI  27

...NORTHERN KANSAS...

CITY           SKY/WX    TMP DP  RH WIND       PRES   REMARKS
GOODLAND       SUNNY     43   8  23 NW31G39   29.89F
HILL CITY      SUNNY     46  15  28 NW22G31   29.88F
NORTON         CLEAR     43  12  28 NW23G30   29.85S
PHILLIPSBURG   CLOUDY    43  21  42 W16G24    29.88S
SMITH CENTER   CLOUDY    39  25  56 W17       29.87F WCI  30
BELOIT         PTSUNNY   39  21  48 W17G26    29.86S WCI  30
HAYS           SUNNY     46  15  28 NW24G33   29.88F
RUSSELL        SUNNY     46  19  34 NW17G30   29.86F
CONCORDIA      MOSUNNY   39  24  55 W24G31    29.83F WCI  28
SALINA         SUNNY     46  23  40 NW24G30   29.87S
TOPEKA         CLOUDY    40  24  53 NW17G23   29.82S WCI  31



USA.gov is the U.S. government's official web portal to all federal, state and local government web resources and services.